Hourly Data Report for April 24, 2018

MIRAMICHI RCS
NEW BRUNSWICK
Current Station Operator: ECCC - MSC

47°00'34.000" N
65°27'54.000" W
33.00 m
8100989
71744
ACQ

Download Data

Hourly Data (April 2018)
Hourly Data Report for April 24, 2018
TIME
LST
Temp Definition
°C
Dew Point Definition
°C
Rel Hum Definition
%
Precip. Amount Definition
mm

Wind Dir Definition
10's deg

Wind Spd Definition
km/h
Visibility Definition
km
Stn Press Definition
kPa
Hmdx Definition


Wind Chill Definition


Weather Definition


00:00 2.5 -7.2 49 0.0 25 6   102.07     LegendNANA
01:00 2.4 -8.8 44 0.0 25 8   102.04     LegendNANA
02:00 1.0 -8.3 50 0.0 25 6   102.00     LegendNANA
03:00 1.1 -8.4 49 0.0 27 8   102.00     LegendNANA
04:00 0.7 -7.3 55 0.0 24 7   101.94     LegendNANA
05:00 0.7 -7.6 54 0.0 25 9   101.92     LegendNANA
06:00 0.4 -6.9 58 0.0 25 11   101.91     LegendNANA
07:00 2.9 -6.0 52 0.0 24 11   101.93     LegendNANA
08:00 6.0 -4.5 47 0.0 24 16   101.87     LegendNANA
09:00 8.6 -4.8 38 0.0 24 18   101.85     LegendNANA
10:00 9.7 -4.3 37 0.0 23 18   101.80     LegendNANA
11:00 12.3 -4.5 31 0.0 23 22   101.75     LegendNANA
12:00 14.0 -5.1 26 0.0 23 22   101.66     LegendNANA
13:00 15.5 -6.3 22 0.0 24 22   101.56     LegendNANA
14:00 16.8 -7.4 18 0.0 24 24   101.51     LegendNANA
15:00 16.3 -7.0 20 0.0 24 24   101.44     LegendNANA
16:00 16.9 -5.9 21 0.0 24 22   101.40     LegendNANA
17:00 18.2 -5.3 20 0.0 25 21   101.39     LegendNANA
18:00 16.1 -4.2 24 0.0 24 14   101.38     LegendNANA
19:00 15.2 -3.5 27 0.0 24 16   101.40     LegendNANA
20:00 12.4 -2.5 35 0.0 19 14   101.45     LegendNANA
21:00 10.6 0.5 50 0.0 21 17   101.50     LegendNANA
22:00 9.2 0.3 54 0.0 23 17   101.51     LegendNANA
23:00 8.0 -0.2 56 0.0 23 19   101.51     LegendNANA

Notes on Data Quality.

Legend

  • E = Estimated
  • M = Missing
  • NA = Not Available*
  • [empty] = Indicates an unobserved value
Date modified: